• In Hungary
  • List of Countries
  • For 7 days
  • Water Temperature
  • Satellite Maps
  • Weather Map
  • News
  • Weather Widgets
  • user-avatar
    Login

    Hourly Weather Bolshoe Ogryzkovo

    Today, 17 October, Wednesday

    Time Temperature Precipitation Wind Pressure Humidity
    00:00 +9°C° 0 mm 3 mps 754 mmHg 88%
    01:00 +8°C° 0 mm 2 mps 755 mmHg 90%
    02:00 +8°C° 0 mm 2 mps 755 mmHg 93%
    03:00 +8°C° 0 mm 2 mps 755 mmHg 93%
    04:00 +8°C° 0 mm 2 mps 755 mmHg 94%
    05:00 +7°C° 0 mm 2 mps 755 mmHg 95%
    06:00 +8°C° 0 mm 2 mps 755 mmHg 93%
    07:00 +8°C° 0 mm 2 mps 755 mmHg 91%
    08:00 +10°C° 0 mm 1 mps 756 mmHg 89%
    09:00 +11°C° 0 mm 1 mps 756 mmHg 84%
    10:00 +13°C° 0 mm 1 mps 756 mmHg 78%
    11:00 +14°C° 0 mm 1 mps 756 mmHg 72%
    12:00 +15°C° 0 mm 1 mps 756 mmHg 71%
    13:00 +15°C° 0 mm 1 mps 756 mmHg 69%
    14:00 +15°C° 0 mm 1 mps 756 mmHg 68%
    15:00 +14°C° 0 mm 1 mps 756 mmHg 74%
    16:00 +13°C° 0 mm 1 mps 756 mmHg 80%
    17:00 +12°C° 0 mm 1 mps 756 mmHg 86%
    18:00 +11°C° 0 mm 1 mps 756 mmHg 88%
    19:00 +11°C° 0 mm 1 mps 756 mmHg 89%
    20:00 +10°C° 0 mm 1 mps 756 mmHg 91%
    21:00 +10°C° 0 mm 1 mps 756 mmHg 91%
    22:00 +10°C° 0 mm 1 mps 756 mmHg 92%
    23:00 +9°C° 0 mm 2 mps 756 mmHg 93%

    Tomorrow, 18 October, Thursday

    Time Temperature Precipitation Wind Pressure Humidity
    00:00 +8°C° 0 mm 2 mps 756 mmHg 93%
    01:00 +8°C° 0 mm 2 mps 755 mmHg 93%
    02:00 +8°C° 0 mm 2 mps 755 mmHg 94%
    03:00 +8°C° 0 mm 2 mps 755 mmHg 94%
    04:00 +7°C° 0 mm 2 mps 755 mmHg 94%
    05:00 +7°C° 0 mm 2 mps 755 mmHg 95%
    06:00 +8°C° 0 mm 2 mps 754 mmHg 93%
    07:00 +8°C° 0 mm 2 mps 754 mmHg 91%
    08:00 +9°C° 0 mm 2 mps 754 mmHg 89%
    09:00 +10°C° 0 mm 3 mps 754 mmHg 83%
    10:00 +12°C° 0 mm 3 mps 754 mmHg 77%
    11:00 +13°C° 0 mm 3 mps 753 mmHg 72%
    12:00 +14°C° 0 mm 3 mps 753 mmHg 70%
    13:00 +14°C° 0 mm 3 mps 753 mmHg 68%
    14:00 +16°C° 0 mm 3 mps 753 mmHg 66%
    15:00 +13°C° 0 mm 3 mps 752 mmHg 72%
    16:00 +12°C° 0 mm 3 mps 752 mmHg 79%
    17:00 +12°C° 0 mm 2 mps 752 mmHg 86%
    18:00 +10°C° 0 mm 2 mps 751 mmHg 88%
    19:00 +10°C° 0 mm 3 mps 751 mmHg 90%
    20:00 +10°C° 0 mm 3 mps 751 mmHg 91%
    21:00 +10°C° 0 mm 3 mps 751 mmHg 92%
    22:00 +10°C° 0 mm 3 mps 751 mmHg 92%
    23:00 +10°C° 0 mm 3 mps 750 mmHg 93%

    Day after tomorrow, 19 October, Friday

    Time Temperature Precipitation Wind Pressure Humidity
    00:00 +10°C° 0 mm 3 mps 750 mmHg 93%
    01:00 +10°C° 0 mm 3 mps 750 mmHg 94%
    02:00 +10°C° 0 mm 3 mps 750 mmHg 94%
    03:00 +10°C° 0 mm 3 mps 750 mmHg 95%
    04:00 +9°C° 0 mm 3 mps 749 mmHg 95%
    05:00 +9°C° 0 mm 3 mps 749 mmHg 96%
    06:00 +10°C° 0 mm 3 mps 749 mmHg 95%
    07:00 +10°C° 0 mm 3 mps 749 mmHg 94%
    08:00 +10°C° 0 mm 3 mps 749 mmHg 93%
    09:00 +11°C° 0.1 mm 3 mps 749 mmHg 89%
    10:00 +11°C° 0.1 mm 3 mps 749 mmHg 86%
    11:00 +12°C° 0.1 mm 3 mps 749 mmHg 83%
    12:00 +12°C° 0.2 mm 3 mps 749 mmHg 82%
    13:00 +12°C° 0.2 mm 3 mps 749 mmHg 81%
    14:00 +11°C° 0.2 mm 3 mps 749 mmHg 80%
    15:00 +10°C° 0 mm 3 mps 750 mmHg 81%
    16:00 +10°C° 0 mm 3 mps 750 mmHg 83%
    17:00 +9°C° 0 mm 2 mps 750 mmHg 84%
    18:00 +8°C° 0 mm 2 mps 750 mmHg 85%
    19:00 +7°C° 0 mm 2 mps 751 mmHg 85%
    20:00 +7°C° 0 mm 2 mps 751 mmHg 86%
    21:00 +6°C° 0 mm 2 mps 751 mmHg 87%
    22:00 +6°C° 0 mm 2 mps 751 mmHg 88%
    23:00 +5°C° 0 mm 2 mps 751 mmHg 89%

    20 October, Saturday

    Time Temperature Precipitation Wind Pressure Humidity
    00:00 +5°C° 0 mm 2 mps 752 mmHg 90%
    01:00 +5°C° 0 mm 2 mps 752 mmHg 92%
    02:00 +4°C° 0 mm 2 mps 752 mmHg 94%
    03:00 +4°C° 0 mm 2 mps 752 mmHg 94%
    04:00 +4°C° 0 mm 2 mps 752 mmHg 95%
    05:00 +4°C° 0 mm 2 mps 752 mmHg 96%
    06:00 +4°C° 0 mm 2 mps 753 mmHg 94%
    07:00 +3°C° 0 mm 3 mps 753 mmHg 93%
    08:00 +4°C° 0 mm 3 mps 753 mmHg 92%
    09:00 +5°C° 0 mm 3 mps 753 mmHg 87%
    10:00 +7°C° 0 mm 2 mps 754 mmHg 83%
    11:00 +8°C° 0 mm 2 mps 754 mmHg 79%
    12:00 +8°C° 0 mm 2 mps 754 mmHg 77%
    13:00 +8°C° 0 mm 2 mps 754 mmHg 76%
    14:00 +8°C° 0 mm 2 mps 754 mmHg 75%
    15:00 +7°C° 0 mm 2 mps 754 mmHg 80%
    16:00 +6°C° 0 mm 2 mps 754 mmHg 85%
    17:00 +5°C° 0 mm 2 mps 754 mmHg 90%
    18:00 +6°C° 0 mm 1 mps 754 mmHg 91%
    19:00 +6°C° 0 mm 1 mps 754 mmHg 92%
    20:00 +5°C° 0 mm 1 mps 755 mmHg 93%
    21:00 +5°C° 0 mm 1 mps 755 mmHg 93%
    22:00 +5°C° 0 mm 1 mps 755 mmHg 93%
    23:00 +5°C° 0 mm 1 mps 755 mmHg 93%

    21 October, Sunday

    Time Temperature Precipitation Wind Pressure Humidity
    00:00 +5°C° 0 mm 1 mps 755 mmHg 93%
    01:00 +5°C° 0 mm 1 mps 755 mmHg 93%
    02:00 +5°C° 0 mm 1 mps 755 mmHg 93%
    03:00 +5°C° 0 mm 1 mps 755 mmHg 92%
    04:00 +5°C° 0 mm 1 mps 755 mmHg 92%
    05:00 +5°C° 0 mm 1 mps 755 mmHg 91%
    06:00 +5°C° 0 mm 1 mps 755 mmHg 89%
    07:00 +6°C° 0 mm 1 mps 755 mmHg 87%
    08:00 +6°C° 0 mm 1 mps 755 mmHg 85%
    09:00 +7°C° 0 mm 1 mps 756 mmHg 80%
    10:00 +8°C° 0 mm 1 mps 756 mmHg 76%
    11:00 +8°C° 0 mm 1 mps 756 mmHg 72%
    12:00 +9°C° 0 mm 1 mps 756 mmHg 70%
    13:00 +9°C° 0 mm 1 mps 756 mmHg 69%
    14:00 +9°C° 0 mm 1 mps 756 mmHg 68%
    15:00 +8°C° 0 mm 1 mps 756 mmHg 73%
    16:00 +7°C° 0 mm 1 mps 756 mmHg 78%
    17:00 +6°C° 0 mm 1 mps 756 mmHg 84%
    18:00 +6°C° 0 mm 1 mps 756 mmHg 86%
    19:00 +5°C° 0 mm 1 mps 756 mmHg 88%
    20:00 +5°C° 0 mm 1 mps 756 mmHg 90%
    21:00 +5°C° 0 mm 1 mps 756 mmHg 91%
    22:00 +5°C° 0 mm 1 mps 756 mmHg 92%
    23:00 +4°C° 0 mm 1 mps 756 mmHg 93%

    22 October, Monday

    Time Temperature Precipitation Wind Pressure Humidity
    00:00 +3°C° 0 mm 2 mps 756 mmHg 93%
    01:00 +3°C° 0 mm 2 mps 756 mmHg 93%
    02:00 +3°C° 0 mm 2 mps 756 mmHg 94%
    03:00 +3°C° 0 mm 2 mps 755 mmHg 94%
    04:00 +3°C° 0 mm 2 mps 755 mmHg 94%
    05:00 +2°C° 0 mm 2 mps 755 mmHg 94%
    06:00 +2°C° 0 mm 3 mps 755 mmHg 91%
    07:00 +2°C° 0 mm 3 mps 754 mmHg 88%
    08:00 +3°C° 0 mm 3 mps 754 mmHg 85%
    09:00 +4°C° 0 mm 4 mps 754 mmHg 78%
    10:00 +6°C° 0 mm 4 mps 753 mmHg 71%
    11:00 +7°C° 0 mm 5 mps 753 mmHg 65%
    12:00 +7°C° 0 mm 5 mps 753 mmHg 63%
    13:00 +7°C° 0 mm 5 mps 752 mmHg 61%
    14:00 +8°C° 0 mm 5 mps 751 mmHg 59%
    15:00 +7°C° 0 mm 5 mps 751 mmHg 63%
    16:00 +6°C° 0 mm 5 mps 751 mmHg 67%
    17:00 +5°C° 0 mm 4 mps 750 mmHg 71%
    18:00 +5°C° 0 mm 4 mps 750 mmHg 72%
    19:00 +4°C° 0 mm 4 mps 750 mmHg 74%
    20:00 +4°C° 0 mm 4 mps 750 mmHg 75%
    21:00 +4°C° 0 mm 4 mps 750 mmHg 77%
    22:00 +4°C° 0 mm 4 mps 750 mmHg 78%
    23:00 +4°C° 0 mm 4 mps 750 mmHg 79%
    Show more